Location: London
(51.5142°N, 0.0931°W)
Time: 13:52:24
(UTC+00:00)

Daily predictions for brighter satellites

Satellite Brightness Start Highest point End
(mag) Time Altitude Azimuth Time Altitude Azimuth Time Altitude Azimuth
Cosmos 1125 Rocket 3.7 16:29:52 10° NNW 16:34:57 51° ENE 16:40:02 10° SE
ATLAS 5 CENTAUR R/B 4.4 16:30:43 10° WNW 16:35:50 35° WSW 16:41:40 10° S
Meteor PRIRODA 4.3 16:33:05 10° S 16:36:43 61° W 16:40:23 10° NNW
Cosmos 2322 Rocket 3.5 16:31:37 10° WSW 16:36:48 35° NW 16:42:00 10° NNE
CREW DRAGON DEMO-1 DEB 2.8 16:36:20 10° W 16:39:20 84° S 16:42:19 10° ESE
SL-16 R/B 4.0 16:38:46 10° ESE 16:40:47 12° E 16:42:48 10° ENE
Cosmos 2221 2.6 16:37:18 10° S 16:41:33 56° E 16:45:48 10° NNE
SMAP 3.3 16:38:30 10° SE 16:42:56 45° ENE 16:47:23 10° N
Cosmos 2208 Rocket 4.1 16:38:49 10° SSW 16:44:03 67° ESE 16:49:24 10° NNE
Cosmos 2184 Rocket 4.1 16:37:45 10° N 16:44:12 82° E 16:50:34 10° SSE
Cosmos 540 Rocket 3.5 16:39:24 10° SSW 16:44:31 90° SE 16:49:41 10° NNE
Cosmos 1633 4.5 16:41:24 10° NNW 16:44:40 33° W 16:47:55 10° SSW
USA 267 3.4 16:40:01 10° E 16:46:26 64° NNE 16:52:55 10° WNW
Cosmos 1500 Rocket 3.5 16:44:11 10° N 16:48:35 72° E 16:52:59 10° SSE
Cosmos 1606 4.1 16:47:36 10° SE 16:50:28 20° E 16:53:19 10° NE
PAYLOAD B 4.2 16:45:12 10° SSE 16:50:48 80° ENE 16:56:24 10° NNW
PSLV R/B 4.1 16:48:56 10° SSE 16:53:03 80° WSW 16:57:10 10° NNW
CZ-4B DEB 4.3 16:48:41 10° SSE 16:54:11 84° WSW 16:59:42 10° NNW
Cosmos 2333 Rocket 2.4 16:51:36 10° SW 16:57:18 77° WNW 17:03:00 10° NNE
Radarsat Rocket 4.2 16:53:30 10° SSE 16:59:33 87° ENE 17:06:21 10° NNW
H-2A R/B 2.6 16:56:05 10° SSE 17:00:24 85° WSW 17:04:36 10° NNW
Cosmos 841 Rocket 3.8 16:55:28 10° SSW 17:00:42 72° WNW 17:05:56 10° NNE
COSMOS 2428 2.8 16:57:18 10° SSW 17:03:03 86° WNW 17:08:50 10° NNE
Cosmos 2278 Rocket 2.6 16:58:49 10° NNW 17:04:30 72° WSW 17:10:09 10° SSE
YAOGAN 1 4.1 17:02:02 10° E 17:04:36 16° ENE 17:07:12 10° NNE
Envisat 3.3 17:01:32 10° S 17:06:37 75° WSW 17:11:44 10° NNW
ERS-2 3.4 17:08:37 14° NE 17:10:39 21° E 17:13:30 10° SE
Cosmos 1743 Rocket 4.0 17:06:50 10° NNW 17:11:19 69° W 17:15:43 10° S
NOAA 12 4.1 17:06:05 10° SSE 17:11:24 78° ENE 17:16:44 10° NNW
COSMO-SKYMED 1 3.9 17:10:27 14° NE 17:12:46 20° E 17:15:57 10° SE
Cosmos 482 Debris 2.1 17:12:36 10° W 17:14:24 82° NNE 17:15:07 30° E
USA 281 3.6 17:08:20 10° ESE 17:14:24 42° NE 17:20:31 10° NNW
Helios 1A Rocket 4.2 17:11:55 10° ESE 17:14:50 20° ENE 17:17:45 10° NNE
Cosmos 2360 Rocket 3.6 17:12:01 10° WSW 17:17:01 32° NW 17:22:03 10° NNE
Sich 1 3.1 17:13:20 10° N 17:17:43 58° ENE 17:22:00 10° SSE
Cosmos 1862 3.8 17:15:04 10° NNW 17:19:05 64° W 17:23:03 10° S
Okean-O 3.6 17:18:33 10° ESE 17:22:09 25° ENE 17:25:46 10° N
Cosmos 2218 Rocket 4.3 17:17:58 10° N 17:23:48 42° ENE 17:29:35 10° SE
Cosmos 2219 Rocket 2.8 17:18:41 10° SW 17:24:15 57° NW 17:29:49 10° NNE
Meteor 1-25 Rocket 4.5 17:19:40 10° N 17:25:03 45° ENE 17:30:27 10° SE
H-2A R/B 3.2 17:21:16 11° ESE 17:25:06 23° ENE 17:29:02 10° N
Cosmos 44 3.6 17:20:27 10° NW 17:25:36 58° NE 17:30:55 10° ESE
CZ-2D R/B 4.0 17:23:02 10° SE 17:26:21 29° ENE 17:29:43 10° N
Cosmos 1842 Rocket 4.5 17:23:02 10° SSW 17:27:14 49° WNW 17:31:28 10° N
AQUARIUS 4.3 17:25:21 10° SSE 17:29:51 80° WSW 17:34:23 10° NNW
Cosmos 1805 Rocket 3.7 17:26:43 10° NNW 17:31:12 82° W 17:35:39 10° S
Okean O Rocket 1.8 17:27:03 10° S 17:31:23 76° WSW 17:35:47 10° NNW
CZ-4B R/B 3.5 17:26:16 10° S 17:31:35 70° WSW 17:36:54 10° NNW
Cosmos 1980 Rocket 4.4 17:30:13 10° NNW 17:31:56 11° NNW 17:33:39 10° N
Cosmos 2366 rocket 4.2 17:27:28 10° N 17:33:29 47° ENE 17:39:24 10° SE
SL-16 R/B 4.3 17:31:07 10° WNW 17:34:53 18° NNW 17:38:39 10° NNE
Cosmos 2237 Rocket 2.1 17:29:34 10° SSW 17:35:10 72° ESE 17:40:11 13° NE
Cosmos 1151 Rocket 3.8 17:31:38 10° SSE 17:35:20 29° E 17:36:52 23° NE
CZ-4C R/B 4.0 17:31:56 10° N 17:35:27 49° WNW 17:38:58 10° SW
NOAA 11 4.1 17:31:48 10° SSE 17:37:14 85° ENE 17:42:42 10° NNW
BREEZE-M DEB (TANK) 3.7 17:35:50 10° SSW 17:37:23 16° SSE 17:37:36 15° SSE
Cosmos 1666 Rocket 3.5 17:33:13 10° N 17:37:35 60° ENE 17:41:57 10° SSE
Nadezhda 1 Rocket 4.2 17:31:29 10° SSW 17:37:50 81° W 17:44:18 10° N
ADEOS Rocket 4.0 17:31:50 10° N 17:39:21 66° WNW 17:47:01 10° SSW
CZ-4 R/B 2.1 17:38:52 22° ESE 17:40:32 30° ENE 17:44:06 10° N
Landsat 5 4.4 17:39:30 10° N 17:43:45 52° WNW 17:48:05 10° SW
Cosmos 1328 Rocket 4.2 17:40:35 10° SSE 17:44:23 32° E 17:45:21 28° ENE
Cosmos 2369 Rocket 2.8 17:39:59 10° NNW 17:45:15 36° NE 17:47:50 24° E
FengYun 1-2 T 4.3 17:40:25 10° SSE 17:45:59 80° WSW 17:51:32 10° NNW
CSL-04 Rocket 4.4 17:44:44 23° E 17:46:48 30° ENE 17:51:21 10° N
Cosmos 836 Rocket 4.4 17:43:27 10° SSW 17:48:43 75° ESE 17:53:11 15° NNE
Cosmos 389 Rocket 2.2 17:45:53 10° S 17:49:18 74° E 17:51:14 24° NNE
Cosmos 1939 Rocket 2.6 17:46:55 10° SSE 17:50:45 71° ENE 17:54:40 10° N
NOSS 0 Rocket 4.1 17:45:05 10° SW 17:51:20 78° NW 17:56:54 14° NNE
Cosmos 1980 3.7 17:47:55 10° SSW 17:53:38 83° WNW 17:58:25 15° NNE
USA 215 3.6 17:50:49 24° ENE 17:54:34 49° SE 18:00:52 10° SSW
H-2A R/B 2.9 17:52:15 10° N 17:56:17 49° WNW 18:00:21 10° SW
ISS -3.6 17:57:13 10° WSW 18:00:32 59° SSE 18:00:57 53° SE
Cosmos 2341 Rocket 4.2 17:54:51 10° NNW 18:01:08 77° W 18:07:26 10° S
SKYMED 2 3.6 17:59:06 27° NE 18:01:13 53° E 18:05:28 10° S
Cosmos 1867 3.7 18:00:16 10° SSW 18:05:34 57° SE 18:07:37 35° ENE
Cosmos 1633 Rocket 3.0 18:02:57 10° NNW 18:07:22 86° W 18:11:45 10° S
CZ-4B R/B 1.3 18:07:34 48° N 18:08:17 73° WNW 18:11:21 10° SSW
Cosmos 1943 Rocket 2.0 18:04:35 10° NNW 18:10:08 70° ENE 18:14:17 18° SE
CZ-2C R/B 2.8 18:07:16 10° SSE 18:12:17 64° ENE 18:17:08 10° N
Cosmos 2297 3.9 18:07:14 10° NNW 18:12:55 75° WSW 18:18:36 10° SSE
CREW DRAGON DEMO-1 DEB 4.4 18:11:54 10° W 18:14:34 29° SSW 18:15:01 28° S
Cosmos 2285 Rocket 4.0 18:09:17 10° NNW 18:15:45 84° WSW 18:22:07 10° SSE
ARGOS 3.4 18:19:45 43° ENE 18:19:47 43° ENE 18:24:52 10° N
Cosmos 864 Rocket 4.5 18:14:45 10° N 18:21:07 88° W 18:27:24 10° S
SL-8 Rocket 4.2 18:15:20 10° NNW 18:21:32 72° W 18:27:46 10° S
Cosmos 2322 Rocket 4.5 18:19:55 10° NW 18:22:40 13° NNW 18:25:25 10° N
SL-24 DEB 4.1 18:18:32 10° N 18:23:19 69° E 18:28:01 10° S
SL-16 R/B 2.1 18:18:13 10° SSW 18:23:48 66° ESE 18:25:38 42° NE
SAR-Lupe-4 3.7 18:25:16 65° S 18:25:16 65° S 18:28:22 10° SSW
Meteor 1-14 Rocket 4.2 18:19:31 10° N 18:25:27 73° ENE 18:31:26 10° SSE
Cosmos 1606 3.9 18:22:11 10° SW 18:25:54 42° WNW 18:29:13 13° N
Cosmos 1933 3.5 18:21:58 10° SSW 18:26:00 73° W 18:27:50 31° N
USA 267 3.4 18:25:00 22° SE 18:29:28 71° SW 18:36:02 10° WNW
SL-24 R/B 3.7 18:32:23 88° NNE 18:32:25 90° SSW 18:36:14 10° SSW
Cosmos 2181 Rocket 4.1 18:27:33 10° SSW 18:34:00 79° W 18:40:25 10° N
Cosmos 44 Rocket 4.2 18:30:01 10° NW 18:34:13 36° NNE 18:34:13 36° NNE
Cosmos 1821 Rocket 3.9 18:29:28 10° N 18:35:36 59° ENE 18:38:27 32° SE
BREEZE-M DEB (TANK) 4.4 18:33:47 10° WSW 18:34:32 20° WSW 18:34:32 20° WSW
Cosmos 2263 4.2 18:30:17 10° NNW 18:35:50 55° NE 18:35:57 55° ENE
Meteor 1-26 Rocket 4.2 18:30:27 10° S 18:36:28 82° ESE 18:42:14 11° NNE
YAOGAN 1 2.5 18:38:54 46° S 18:40:09 82° WSW 18:44:31 10° NNW
Cosmos 1782 4.4 18:36:39 10° S 18:38:18 24° S 18:38:18 24° S
PSLV R/B 4.4 18:42:54 51° SSW 18:42:54 51° SSW 18:45:57 10° SSW
Cosmos 2333 Rocket 4.2 18:38:11 10° W 18:42:32 22° NW 18:46:14 12° N
Cosmos 1470 Rocket 3.8 18:39:30 10° NNW 18:43:48 64° W 18:48:04 10° S
ERS-2 3.5 18:43:13 30° NNW 18:44:19 37° WNW 18:47:43 10° SW
COSMO-SKYMED 1 3.2 18:47:40 34° N 18:49:16 55° WNW 18:53:30 10° SSW
Helios 1A Rocket 3.5 18:47:42 27° SSW 18:49:40 54° WSW 18:53:38 10° NNW
SL-08 R/B 4.5 18:47:14 10° NNW 18:53:26 79° W 18:59:32 10° S
MOS 1 Rocket 3.5 18:53:20 78° ENE 18:53:35 80° ESE 18:59:02 10° S
Okean-O 3.5 18:54:07 10° S 18:58:23 48° W 19:02:42 10° NNW
USA 281 3.8 18:52:22 10° S 18:58:47 55° WSW 19:05:15 10° NNW
Lacrosse 5 rocket 3.4 18:57:34 10° SW 18:58:35 18° SW 18:58:35 18° SW
Cosmos 773 Rocket 4.0 18:56:41 10° SSW 19:01:53 82° W 19:01:53 82° W
H-2A R/B 2.2 19:01:53 36° S 19:04:04 72° WSW 19:09:17 10° NNW
CSL-04 Debris 4.3 19:02:09 37° S 19:04:23 76° WSW 19:09:54 10° NNW
Meteor 1-5 Rocket 4.2 19:03:03 10° NNW 19:09:03 87° W 19:09:20 82° S
Cosmos 2219 Rocket 4.4 19:05:42 10° WNW 19:09:28 18° NNW 19:12:11 13° N
CZ-4 R/B 3.2 19:14:54 28° WSW 19:15:34 30° W 19:19:08 10° NNW
Cosmos 1656 Rocket 4.2 19:11:02 10° NNW 19:15:16 51° NNW 19:15:16 51° NNW
Cosmos 2237 Rocket 3.8 19:14:56 10° W 19:19:47 29° NW 19:22:01 22° N
CSL-04 Rocket 4.2 19:26:22 52° WSW 19:26:54 54° W 19:32:08 10° NNW
Cosmos 2369 Rocket 2.8 19:24:00 10° NW 19:29:32 53° WSW 19:29:41 53° WSW
USA 215 3.3 19:38:10 75° NW 19:38:10 75° NW 19:44:24 10° WSW
Cosmos 1943 Rocket 4.2 19:49:04 10° NW 19:53:23 24° WSW 19:55:55 17° SW
SL-16 R/B 3.9 20:03:23 10° WSW 20:07:33 30° WNW 20:07:33 30° WNW
